This demonstration page uses our WeatherBlox Daily Observations layout. Learn more.

Hourly Observations for October 12, 2019

Temp ( °F °C ) Dew Point ( °F °C ) Humidity (%) Winds ( mph kmh ) Pressure ( in mb ) Visibility ( mi km ) Precip ( " mm )
12:03 am 00:03 Cloudy with Light Rain 46 7.8 44 6.7 93 93 WNW 12 19 30.09 1019 6 9.656064 0.01 0.254
12:44 am 00:44 Cloudy with Light Rain 46 7.8 44 6.7 93 93 WNW 9 15 30.09 1019 4 6.437376 0.02 0.508
12:53 am 00:53 Cloudy with Light Rain 45 7.2 43 6.1 93 93 WNW 10 17 30.06 1018 7 11.265408 0.02 0.508
1:00 am 01:00 Cloudy with Light Rain 45 7.2 42 5.6 90 90 WNW 14 22 30.09 1019 10 16.09344 0.001 0.001
1:53 am 01:53 Cloudy 45 7.2 41 5 86 86 NW 9 15 30.06 1018 10 16.09344 0.001 0.001
2:09 am 02:09 Cloudy 45 7.2 41 5 86 86 WNW 9 15 30.09 1019 10 16.09344 0 0
2:53 am 02:53 Cloudy 44 6.7 40 4.4 85 85 WNW 10 17 30.09 1019 10 16.09344 0.001 0.001
3:53 am 03:53 Cloudy 43 6.1 34 1.1 71 71 WNW 15 24 30.09 1019 10 16.09344 0 0
4:53 am 04:53 Mostly Cloudy 41 5 33 0.6 73 73 WNW 8 13 30.12 1020 10 16.09344 0 0
5:53 am 05:53 Clear 38 3.3 35 1.7 89 89 W 3 6 30.12 1020 10 16.09344 0 0
6:53 am 06:53 Clear 34 1.1 34 1.1 100 100 Calm 30.15 1021 10 16.09344 0 0
7:53 am 07:53 Sunny 34 1.1 34 1.1 100 100 WSW 5 7 30.15 1021 10 16.09344 0 0
8:53 am 08:53 Sunny 40 4.4 36 2.2 86 86 W 7 11 30.18 1022 10 16.09344 0 0
9:53 am 09:53 Sunny 43 6.1 33 0.6 68 68 W 6 9 30.21 1023 10 16.09344 0 0
10:53 am 10:53 Sunny 46 7.8 31 -0.6 56 56 WNW 13 20 30.21 1023 10 16.09344 0 0
11:53 am 11:53 Sunny 48 8.9 31 -0.6 52 52 WSW 5 7 30.21 1023 10 16.09344 0 0
12:53 pm 12:53 Sunny 50 10 31 -0.6 48 48 VRB 5 7 30.18 1022 10 16.09344 0 0
1:53 pm 13:53 Sunny 52 11.1 29 -1.7 41 41 W 13 20 30.15 1021 10 16.09344 0 0
2:53 pm 14:53 Sunny 55 12.8 30 -1.1 38 38 WSW 8 13 30.15 1021 10 16.09344 0 0
3:53 pm 15:53 Sunny 56 13.3 28 -2.2 34 34 WSW 8 13 30.12 1020 10 16.09344 0 0
4:53 pm 16:53 Sunny 56 13.3 28 -2.2 34 34 VRB 6 9 30.09 1019 10 16.09344 0 0
5:53 pm 17:53 Sunny 56 13.3 29 -1.7 36 36 SW 6 9 30.09 1019 10 16.09344 0 0
6:53 pm 18:53 Sunny 51 10.6 30 -1.1 44 44 SSW 5 7 30.09 1019 10 16.09344 0 0
7:53 pm 19:53 Clear 42 5.6 36 2.2 79 79 Calm 30.09 1019 10 16.09344 0 0
8:53 pm 20:53 Clear 39 3.9 36 2.2 89 89 Calm 30.09 1019 10 16.09344 0 0
9:53 pm 21:53 Clear 38 3.3 36 2.2 93 93 Calm 30.09 1019 10 16.09344 0 0
10:53 pm 22:53 Clear 37 2.8 35 1.7 93 93 Calm 30.09 1019 10 16.09344 0 0
11:53 pm 23:53 Clear 39 3.9 36 2.2 89 89 SE 3 6 30.06 1018 10 16.09344 0 0

Powered by AerisWeather